Regional Weather Roundup
Issued by NWS

Home | Current Version | Previous Version | Graphics & Text | Print | Product List | Glossary On
Versions: 1 2 3 4 5 6 7 8 9 10 11 12 13 14 15 16 17 18 19 20 21 22 23 24 25 26 27 28 29 30 31 32 33 34 35 36 37 38 39 40 41 42 43 44 45 46 47 48 49 50
000
ASUS43 KFSD 280602
RWRSD

WEATHER ROUNDUP FOR SOUTH DAKOTA
NATIONAL WEATHER SERVICE SIOUX FALLS SD
1200 AM CST TUE FEB 28 2017

NOTE: "FAIR" INDICATES FEW OR NO CLOUDS BELOW 12,000 FEET WITH NO
SIGNIFICANT WEATHER AND/OR OBSTRUCTIONS TO VISIBILITY.


SDZ001>005-009-010-012>017-280700-
NORTHWEST AND NORTH CENTRAL SOUTH DAKOTA

CITY           SKY/WX    TMP DP  RH WIND       PRES   REMARKS
BUFFALO          N/A     20  18  92 E16       29.65F WCI   6
FAITH            N/A     20  20 100 NE18      29.72R WCI   5
MOBRIDGE       CLOUDY    28  22  78 NE12      29.75S WCI  18
$$

SDZ012>016-024>037-041>051-057-063-072>074-280700-
SOUTHWEST AND SOUTH CENTRAL SOUTH DAKOTA

CITY           SKY/WX    TMP DP  RH WIND       PRES   REMARKS
RAPID CTY ARPT PTCLDY    25  20  81 N8        29.69R WCI  16
PIERRE         LGT RAIN  33  31  92 NE7       29.72S WCI  27
CUSTER         CLOUDY    18  12  77 CALM      29.60S
ELLSWORTH AFB  CLOUDY    26  22  84 N7        29.69R WCI  18
PHILIP         FLURRIES  30  29  96 N12       29.71S WCI  20
PINE RIDGE     CLOUDY    32  32 100 CALM      29.69S FOG
SPEARFISH      FAIR      23  19  86 E3        29.64F
WINNER         CLOUDY    33  28  81 N7        29.69R WCI  27
$$

SDZ004>011-016>023-039-040-280700-
NORTHEAST SOUTH DAKOTA

CITY           SKY/WX    TMP DP  RH WIND       PRES   REMARKS
ABERDEEN       LGT SNOW  27  22  81 NE15      29.78F WCI  15
WATERTOWN      CLOUDY    30  26  85 N6        29.73S WCI  24
BROOKINGS      CLOUDY    33  29  85 N5        29.70F WCI  29
SISSETON         N/A     28  27  96 N16       29.78F WCI  16
$$

SDZ017-020-022-023-036>040-048>070-280700-
SOUTHEAST SOUTH DAKOTA

CITY           SKY/WX    TMP DP  RH WIND       PRES   REMARKS
SIOUX FALLS    CLOUDY    36  31  82 E5        29.70F
HURON          CLOUDY    30  27  88 NE6       29.72S WCI  24
CHAMBERLAIN    CLOUDY    34  27  75 N8        29.72R WCI  28
MITCHELL       CLOUDY    31  29  92 N3        29.71S
YANKTON        CLOUDY    30  27  86 E7        29.67S WCI  23
$$

ABBREVIATIONS USED IN REMARKS
   TC - TEMPERATURE IN CELSIUS
  WCI - WIND CHILL INDEX
   HX - HEAT INDEX
  VSB - VISIBILITY





USA.gov is the U.S. government's official web portal to all federal, state and local government web resources and services.